Wind_Speed
19 18 16 15 14 13 11 10 9 8 8 9 9 10 10 10 11 12 12 11 11 11 11 11 11 12 12 13 13 13 13 14 14 15 14 13 11 8 5 4 4 5 7
20 19 17 15 14 14 12 11 10 8 7 7 8 8 8 9 8 8 9 11 12 13 12 11 12 12 13 14 15 15 16 16 16 16 14 12 9 6 4 4 4 5 5
21 22 20 16 14 14 13 10 9 9 8 6 6 6 6 7 7 6 7 9 10 11 10 12 13 13 15 16 18 18 17 16 16 15 14 12 10 7 2 5 2 3 5
20 16 14 15 14 13 12 11 11 10 9 6 6 6 7 6 6 5 6 8 10 12 12 13 14 16 17 18 19 18 17 16 15 13 13 13 10 9 10 6 2 4 7
19 17 15 13 14 13 12 10 11 10 10 8 5 8 8 8 8 6 8 10 12 13 14 15 17 17 17 17 15 14 14 12 12 11 7 7 7 7 13 12 6 3 8
17 15 18 14 12 11 9 10 11 10 7 6 7 9 9 11 10 11 11 12 13 14 15 17 18 17 17 17 15 15 14 12 9 9 9 6 10 17 14 16 11 8 9
16 13 15 14 14 12 11 11 10 9 8 7 10 11 14 13 14 12 13 12 14 16 17 17 16 15 15 15 14 12 9 9 9 5 7 8 10 12 13 16 13 14 11
16 13 12 14 15 14 12 13 10 9 8 10 14 13 15 16 14 13 12 15 16 17 18 17 14 15 16 15 13 11 9 8 8 7 7 8 11 10 10 9 12 8 12
16 15 13 12 10 11 11 13 13 12 12 16 17 18 18 18 13 12 14 16 18 19 19 17 15 15 15 13 14 12 11 12 6 5 7 8 9 9 8 9 9 7 3
13 14 13 13 12 12 13 12 12 14 16 18 19 18 18 13 12 14 16 19 21 21 20 19 17 15 14 12 12 11 14 14 4 10 11 11 9 10 6 8 7 6 3
11 15 16 16 16 14 13 13 14 14 17 20 19 18 21 16 14 14 18 20 21 21 22 22 19 14 11 13 11 10 8 10 6 5 4 8 6 8 7 8 7 4 2
9 16 20 18 17 16 15 14 13 15 20 19 20 19 20 14 15 14 16 19 21 23 23 22 19 14 10 9 10 11 9 5 4 8 12 13 8 6 7 6 7 5 2
5 15 20 20 19 18 15 14 15 17 19 19 19 17 15 15 15 15 18 19 22 23 23 20 16 11 8 4 7 3 3 6 10 8 9 9 10 9 8 8 6 4 5
8 15 21 23 22 18 16 18 19 17 20 19 16 16 16 15 15 16 18 19 20 21 20 18 13 9 5 6 6 9 8 9 10 8 6 7 11 11 8 7 7 6 6
10 13 23 21 19 18 18 18 20 19 22 20 16 14 14 13 14 16 17 16 17 18 17 14 13 9 2 4 8 6 9 11 14 7 5 8 13 14 10 8 8 6 8
13 12 12 17 16 17 21 22 22 19 19 17 18 12 14 13 14 15 17 17 15 15 14 11 8 4 1 2 5 8 8 7 11 9 6 9 13 13 15 11 9 9 9
10 13 16 17 19 19 22 17 18 17 14 12 14 16 14 15 17 16 17 16 14 14 12 10 8 5 3 3 7 5 13 12 8 7 7 8 10 11 15 13 10 11 9
9 14 19 16 13 12 15 13 13 16 11 16 16 16 14 15 15 17 17 16 11 15 14 13 10 3 1 3 7 1 7 7 3 2 6 9 11 14 13 13 11 11 10
9 10 12 12 10 10 18 12 16 15 13 16 16 15 14 15 15 17 18 18 13 13 14 13 11 8 3 7 8 5 7 8 4 2 7 10 9 11 12 12 10 9 9
9 8 11 13 15 13 14 11 15 14 14 14 14 15 13 15 14 15 14 16 14 13 14 13 11 6 3 7 7 7 4 4 8 4 3 7 6 8 10 10 10 9 9
9 6 5 12 11 16 15 12 14 14 13 14 15 16 14 13 16 10 15 14 13 12 11 12 10 10 9 6 5 6 9 6 2 7 8 9 6 8 6 4 7 6 8
9 7 8 11 12 13 15 14 16 21 19 15 15 16 13 14 13 12 12 15 12 11 11 12 7 9 6 5 5 6 2 1 4 4 8 11 9 8 5 4 4 4 4
8 9 7 8 12 13 15 15 15 20 21 17 14 16 17 15 15 16 15 13 12 11 8 11 8 7 8 6 4 7 6 1 2 4 8 4 4 6 7 3 5 7 3
7 8 8 6 8 12 15 18 15 17 13 11 10 16 16 15 14 15 15 14 13 10 12 12 11 8 10 7 6 4 6 5 5 2 5 5 2 3 4 7 3 4 5
9 11 9 8 8 9 12 14 15 14 13 12 17 15 12 13 13 13 14 13 13 11 13 13 12 12 11 10 7 5 5 6 7 8 3 3 1 1 1 4 4 3 4
10 11 12 10 9 9 11 13 13 14 13 12 15 14 14 15 15 15 16 16 13 11 14 15 14 14 12 13 10 9 8 6 7 9 10 9 6 5 5 2 4 2 2
Wind_Direction
163 158 161 158 161 160 160 157 159 159 152 148 148 141 140 132 127 124 120 112 112 116 130 132 131 124 117 112 120 121 121 116 113 113 114 117 120 127 140 158 166 182 189
167 159 158 158 158 163 162 161 167 161 153 153 152 145 147 136 129 129 115 112 120 124 128 135 124 118 118 119 120 117 111 114 118 115 106 94 94 98 135 156 172 194 191
167 166 160 162 162 165 169 170 165 169 154 165 175 170 163 154 141 139 120 126 123 131 130 127 118 123 122 122 120 117 118 118 117 108 96 85 89 71 200 140 157 213 217
170 177 176 172 170 168 168 171 164 169 172 166 191 192 180 178 150 140 140 142 135 132 130 123 121 119 120 122 118 119 120 122 113 106 88 77 81 70 37 139 114 241 219
177 176 177 182 173 174 177 188 176 172 166 167 180 188 181 183 157 148 164 157 140 136 131 124 123 122 122 122 122 125 121 115 103 89 80 64 60 72 56 33 19 334 253
184 196 196 194 190 187 196 188 180 172 169 173 174 177 163 149 136 121 152 158 145 137 131 125 120 122 120 124 126 123 127 121 88 76 63 56 30 35 37 24 18 349 274
195 191 193 201 200 199 189 186 181 185 181 165 157 161 156 154 131 139 147 155 144 134 127 120 123 124 128 127 119 128 121 110 90 74 51 34 40 31 27 20 22 27 41
194 203 211 209 199 197 198 194 197 198 196 168 158 157 147 138 142 147 154 151 138 133 129 127 131 131 121 114 109 102 95 86 73 29 11 16 25 22 29 12 29 45 86
203 204 205 198 195 183 193 201 198 200 190 170 161 155 152 146 152 150 150 147 137 136 132 139 137 124 123 117 100 84 61 46 39 16 19 7 17 6 18 21 20 24 48
213 211 205 203 198 189 181 188 195 189 177 164 162 160 157 154 156 154 156 148 142 139 138 136 127 129 125 106 83 64 44 16 20 336 323 349 351 358 357 7 356 23 340
225 219 209 201 194 196 193 183 181 182 162 164 160 156 157 165 163 166 159 150 142 138 139 135 131 130 122 107 90 54 78 46 55 348 9 357 317 341 351 2 342 5 313
226 213 206 195 189 183 177 170 177 159 149 149 152 159 171 167 167 166 155 147 142 142 143 141 142 154 127 124 111 90 79 16 6 356 356 7 347 355 13 6 333 352 3
222 199 195 183 176 178 171 172 162 143 148 150 161 170 178 169 169 163 153 153 149 150 153 160 161 169 145 94 69 57 352 336 342 347 356 10 34 29 34 12 9 16 16
97 156 164 170 167 174 169 168 151 151 148 164 165 168 169 170 167 160 162 159 155 157 160 169 162 175 108 46 29 17 356 349 335 6 14 37 40 32 24 36 37 31 50
110 143 154 164 174 178 173 159 154 152 153 165 171 167 174 170 167 167 165 163 162 168 168 171 184 203 129 46 21 347 29 11 12 321 14 46 47 40 35 49 44 48 60
77 127 154 169 165 170 157 153 158 154 158 165 170 174 173 171 168 177 163 169 171 176 180 179 210 199 301 353 344 328 0 1 15 33 56 55 44 46 46 53 54 50 51
106 103 125 136 143 136 140 149 155 162 163 172 180 165 177 177 176 172 171 177 181 190 178 172 182 176 322 323 321 326 54 32 2 19 48 37 39 62 56 57 57 58 49
146 144 137 139 150 154 160 150 170 161 174 174 176 184 179 168 183 188 181 178 180 186 187 187 183 214 229 17 354 351 1 14 23 114 45 32 41 52 39 50 57 56 63
159 166 167 166 167 170 167 169 173 182 182 178 185 186 190 185 175 194 195 189 196 205 204 207 224 223 223 258 313 331 4 16 51 45 38 21 41 31 37 47 53 51 55
144 161 184 186 181 191 187 188 186 185 187 186 184 174 166 173 177 193 194 194 203 203 206 224 231 234 231 277 300 302 315 86 74 79 323 43 84 57 44 49 57 53 48
158 142 162 184 191 194 195 190 202 202 188 205 194 188 182 167 181 199 195 203 204 219 223 227 238 243 246 267 292 333 121 141 99 49 81 82 88 72 18 32 59 66 53
155 146 161 187 195 206 207 204 204 208 211 205 196 188 190 194 195 199 213 209 206 219 221 231 232 245 250 277 260 260 204 31 170 115 96 108 95 74 64 88 102 64 48
169 141 140 153 187 197 205 206 209 204 211 205 201 206 197 198 198 198 209 212 212 217 231 242 234 246 257 260 265 237 254 242 97 161 154 138 97 97 111 112 133 79 47
201 187 165 163 172 196 212 209 221 212 205 201 216 216 204 203 205 206 210 214 222 225 236 245 247 252 255 262 272 244 244 250 236 208 165 170 224 117 81 58 91 113 26
224 218 195 198 181 195 224 226 228 229 233 241 212 222 218 209 214 215 214 219 234 237 242 247 249 247 248 245 247 258 260 265 247 243 197 214 33 146 147 40 40 31 6
237 228 216 205 209 195 211 230 242 238 230 240 232 227 225 223 218 221 220 213 225 236 232 239 241 245 243 232 241 260 266 257 245 254 257 264 245 233 303 266 356 309 336
Height
3166 3167 3170 3172 3174 3176 3177 3179 3181 3184 3185 3187 3188 3189 3189 3190 3190 3192 3192 3192 3192 3192 3191 3193 3194 3194 3195 3196 3197 3198 3199 3198 3198 3198 3200 3200 3200 3200 3201 3201 3202 3202 3202
3165 3167 3170 3173 3175 3177 3178 3180 3181 3183 3185 3187 3188 3189 3190 3191 3191 3193 3194 3193 3193 3193 3193 3194 3195 3196 3197 3198 3199 3200 3200 3200 3202 3201 3201 3202 3202 3201 3201 3201 3202 3202 3202
3166 3167 3169 3173 3175 3177 3180 3181 3181 3183 3185 3186 3188 3189 3190 3191 3192 3194 3195 3195 3194 3195 3195 3196 3197 3198 3199 3200 3201 3201 3201 3201 3201 3203 3203 3202 3202 3201 3200 3200 3201 3201 3202
3167 3169 3171 3172 3175 3178 3179 3181 3182 3184 3186 3187 3188 3188 3190 3192 3193 3194 3196 3196 3195 3196 3196 3197 3199 3200 3201 3202 3202 3203 3203 3203 3203 3203 3203 3203 3201 3201 3202 3201 3201 3201 3200
3166 3168 3170 3173 3175 3177 3179 3180 3183 3185 3186 3187 3188 3189 3191 3193 3194 3194 3196 3196 3196 3197 3198 3199 3201 3202 3202 3203 3203 3204 3205 3205 3203 3203 3204 3203 3202 3200 3201 3201 3201 3200 3200
3166 3168 3169 3172 3174 3176 3177 3179 3182 3184 3185 3187 3187 3189 3190 3193 3195 3194 3196 3198 3198 3198 3200 3201 3203 3203 3204 3204 3205 3206 3207 3206 3205 3206 3206 3203 3203 3199 3200 3199 3200 3199 3195
3166 3167 3168 3168 3173 3175 3177 3179 3182 3183 3184 3185 3188 3190 3191 3194 3195 3196 3197 3200 3199 3201 3202 3204 3204 3204 3205 3206 3207 3208 3208 3208 3208 3208 3208 3206 3203 3201 3200 3201 3200 3198 3192
3165 3167 3167 3166 3170 3174 3177 3179 3180 3182 3183 3186 3188 3191 3194 3195 3196 3198 3199 3201 3203 3203 3204 3205 3205 3205 3207 3208 3209 3211 3210 3209 3209 3209 3209 3208 3205 3204 3200 3198 3200 3200 3199
3166 3167 3168 3169 3167 3171 3176 3178 3179 3181 3183 3186 3189 3192 3194 3196 3197 3198 3200 3203 3203 3205 3206 3205 3206 3207 3208 3209 3211 3213 3212 3211 3210 3210 3210 3208 3206 3204 3201 3199 3201 3200 3200
3165 3166 3167 3169 3171 3173 3175 3177 3178 3178 3183 3186 3190 3192 3195 3196 3197 3199 3202 3202 3203 3204 3206 3208 3208 3210 3210 3213 3213 3213 3211 3210 3211 3212 3210 3208 3206 3205 3203 3201 3200 3200 3201
3164 3165 3167 3168 3171 3174 3175 3178 3180 3181 3184 3187 3190 3193 3196 3196 3199 3201 3202 3204 3205 3207 3207 3208 3210 3213 3214 3214 3215 3215 3213 3212 3212 3210 3209 3207 3205 3204 3201 3200 3200 3199 3199
3162 3162 3164 3167 3171 3174 3176 3178 3182 3183 3186 3189 3192 3194 3197 3199 3201 3203 3205 3208 3208 3209 3210 3211 3212 3212 3213 3211 3215 3215 3215 3213 3212 3210 3208 3206 3204 3203 3202 3201 3200 3198 3198
3158 3158 3162 3167 3171 3173 3176 3179 3182 3185 3189 3192 3193 3196 3199 3201 3202 3205 3208 3210 3210 3210 3210 3211 3212 3213 3215 3217 3216 3217 3215 3214 3213 3211 3208 3207 3204 3202 3201 3201 3200 3199 3198
3159 3159 3163 3167 3170 3173 3176 3180 3184 3188 3191 3193 3195 3197 3201 3203 3206 3208 3209 3211 3212 3212 3212 3212 3213 3214 3216 3216 3217 3217 3215 3215 3214 3212 3209 3207 3204 3202 3201 3200 3200 3200 3198
3163 3162 3165 3168 3171 3174 3178 3181 3186 3188 3191 3194 3197 3201 3203 3206 3208 3210 3211 3213 3214 3214 3213 3215 3215 3215 3216 3218 3219 3217 3215 3214 3212 3211 3210 3208 3204 3202 3201 3199 3200 3201 3198
3167 3166 3167 3169 3173 3176 3179 3183 3187 3189 3193 3195 3199 3202 3205 3207 3209 3211 3212 3214 3215 3216 3216 3216 3218 3218 3218 3218 3218 3217 3215 3213 3214 3212 3211 3209 3206 3203 3201 3200 3199 3200 3199
3173 3172 3172 3174 3177 3180 3180 3186 3189 3193 3195 3197 3200 3202 3206 3207 3210 3212 3213 3214 3215 3217 3218 3218 3218 3218 3218 3218 3217 3217 3214 3213 3213 3213 3212 3210 3207 3204 3203 3201 3201 3201 3202
3175 3177 3178 3180 3181 3183 3186 3189 3191 3194 3195 3198 3202 3204 3206 3208 3210 3212 3213 3214 3215 3217 3218 3219 3220 3219 3219 3218 3216 3215 3215 3212 3212 3213 3212 3211 3209 3208 3207 3204 3203 3204 3203
3177 3178 3180 3182 3184 3185 3188 3190 3192 3195 3197 3199 3202 3204 3206 3207 3208 3211 3212 3214 3216 3218 3219 3219 3220 3220 3219 3219 3218 3217 3215 3213 3212 3213 3213 3212 3211 3211 3209 3207 3205 3206 3205
3178 3180 3181 3183 3185 3187 3189 3191 3193 3195 3197 3199 3202 3204 3206 3206 3208 3210 3212 3214 3216 3218 3219 3219 3220 3220 3219 3219 3217 3216 3215 3214 3214 3213 3213 3212 3213 3211 3210 3209 3208 3208 3207
3178 3181 3182 3183 3185 3187 3189 3191 3194 3196 3198 3199 3201 3204 3206 3207 3209 3210 3212 3214 3217 3218 3219 3220 3219 3219 3219 3219 3219 3217 3214 3216 3216 3214 3213 3213 3213 3211 3211 3211 3210 3210 3209
3177 3179 3182 3184 3184 3186 3189 3191 3193 3196 3198 3199 3200 3203 3205 3207 3209 3210 3213 3213 3215 3217 3218 3220 3219 3219 3219 3219 3219 3218 3217 3217 3215 3216 3215 3214 3213 3212 3212 3212 3210 3210 3210
3177 3178 3180 3183 3184 3186 3188 3190 3192 3195 3197 3199 3200 3202 3205 3206 3208 3210 3212 3212 3214 3216 3216 3219 3219 3219 3219 3219 3219 3218 3216 3216 3215 3215 3216 3215 3214 3214 3212 3212 3211 3208 3210
3176 3178 3179 3180 3183 3184 3186 3189 3191 3194 3196 3197 3199 3202 3203 3204 3205 3209 3211 3212 3213 3214 3216 3217 3218 3218 3219 3218 3217 3216 3216 3216 3215 3216 3216 3215 3214 3214 3213 3212 3210 3209 3210
3174 3177 3178 3179 3180 3182 3184 3186 3189 3191 3194 3195 3197 3200 3201 3203 3205 3207 3209 3211 3212 3213 3213 3214 3215 3217 3217 3218 3217 3216 3216 3215 3215 3215 3215 3214 3214 3214 3214 3213 3212 3211 3211
3173 3174 3176 3178 3180 3180 3182 3184 3187 3190 3192 3193 3196 3198 3200 3202 3202 3204 3206 3207 3209 3210 3211 3212 3213 3215 3215 3217 3216 3215 3215 3215 3214 3214 3213 3213 3214 3215 3214 3213 3213 3212 3211